Location: Basse Occidentale du Courleau
(48.3833°N, 4.8333°W)
Time: 09:51:06
(UTC+00:00)

GP-B - Pass Details

Date: 05 July 2020
Orbit: 631 x 635 km, 89.8° (Epoch: 07 August)

Event Time Altitude Azimuth Distance (km) Brightness Sun altitude
Rises 23:40:37 0° 2° (N) 2,943 8.1 -18.3°
Reaches altitude 10° 23:42:51 10° 4° (N) 2,029 6.9 -18.4°
Maximum altitude 23:47:19 78° 91° (E) 653 3.1 -18.5°
Enters shadow 23:48:51 41° 170° (S) 927 3.4 -18.5°
